Time,TemperatureF,DewpointF,PressureIn,WindDirection,WindDirectionDegrees,WindSpeedMPH,WindSpeedGustMPH,Humidity,HourlyPrecipIn,Conditions,Clouds,dailyrainin,SoftwareType,DateUTC
2013-02-05 00:00:00,21.8,12.2,30.35,ESE,102,5.0,9.0,66,0.00,CLR,,0.00,WeatherDisplay:10.37,2013-02-05 07:00:00,
2013-02-05 00:30:00,20.0,10.8,30.35,SE,138,2.0,6.0,67,0.00,CLR,,0.00,WeatherDisplay:10.37,2013-02-05 07:30:00,
2013-02-05 01:00:00,19.8,10.6,30.35,SE,133,1.0,5.0,67,0.00,CLR,,0.00,WeatherDisplay:10.37,2013-02-05 08:00:00,
2013-02-05 01:30:00,18.2,9.4,30.35,ESE,120,2.0,5.0,68,0.00,CLR,,0.00,WeatherDisplay:10.37,2013-02-05 08:30:00,
2013-02-05 02:00:00,18.1,9.6,30.36,SE,136,3.0,6.0,69,0.00,CLR,,0.00,WeatherDisplay:10.37,2013-02-05 09:00:00,
2013-02-05 02:30:00,15.8,8.7,30.37,ESE,102,2.0,4.0,73,0.00,CLR,,0.00,WeatherDisplay:10.37,2013-02-05 09:30:00,
2013-02-05 03:00:00,18.1,9.7,30.36,SE,134,3.0,5.0,69,0.00,CLR,,0.00,WeatherDisplay:10.37,2013-02-05 10:00:00,
2013-02-05 03:30:00,17.9,9.1,30.36,SE,131,0.0,6.0,68,0.00,CLR,,0.00,WeatherDisplay:10.37,2013-02-05 10:30:00,
2013-02-05 04:00:00,17.7,9.6,30.35,SE,135,2.0,5.0,70,0.00,CLR,,0.00,WeatherDisplay:10.37,2013-02-05 11:00:00,
2013-02-05 04:30:00,17.9,9.5,30.35,ESE,121,2.0,6.0,69,0.00,CLR,,0.00,WeatherDisplay:10.37,2013-02-05 11:30:00,
2013-02-05 05:00:00,17.0,8.9,30.35,East,98,0.0,5.0,70,0.00,CLR,,0.00,WeatherDisplay:10.37,2013-02-05 12:00:00,
2013-02-05 05:30:00,17.3,9.5,30.34,SE,142,0.0,5.0,71,0.00,CLR,,0.00,WeatherDisplay:10.37,2013-02-05 12:30:00,
2013-02-05 06:00:00,17.5,9.7,30.34,SE,130,2.0,5.0,71,0.00,CLR,,0.00,WeatherDisplay:10.37,2013-02-05 13:00:00,
2013-02-05 06:30:00,17.4,9.9,30.35,SE,132,2.0,5.0,72,0.00,CLR,,0.00,WeatherDisplay:10.37,2013-02-05 13:30:00,
2013-02-05 07:00:00,14.9,8.1,30.36,SE,132,0.0,4.0,74,0.00,CLR,,0.00,WeatherDisplay:10.37,2013-02-05 14:00:00,
2013-02-05 07:30:00,15.9,9.4,30.36,SE,133,0.0,4.0,75,0.00,CLR,,0.00,WeatherDisplay:10.37,2013-02-05 14:30:00,
2013-02-05 08:00:00,15.2,7.8,30.36,SSE,150,0.0,4.0,72,0.00,CLR,,0.00,WeatherDisplay:10.37,2013-02-05 15:00:00,
2013-02-05 08:30:00,18.0,10.2,30.34,SSE,150,0.0,2.0,71,0.00,CLR,,0.00,WeatherDisplay:10.37,2013-02-05 15:30:00,
2013-02-05 09:00:00,24.7,13.5,30.34,West,270,0.0,5.0,62,0.00,CLR,,0.00,WeatherDisplay:10.37,2013-02-05 16:00:00,
2013-02-05 09:30:00,24.6,13.4,30.35,West,269,1.0,5.0,62,0.00,CLR,,0.00,WeatherDisplay:10.37,2013-02-05 16:30:00,
2013-02-05 10:00:00,28.6,15.3,30.35,WSW,251,1.0,5.0,57,0.00,CLR,,0.00,WeatherDisplay:10.37,2013-02-05 17:00:00,
2013-02-05 10:30:00,29.0,16.0,30.34,SSE,154,3.0,5.0,58,0.00,CLR,,0.00,WeatherDisplay:10.37,2013-02-05 17:30:00,
2013-02-05 11:00:00,33.3,16.2,30.35,SE,129,1.0,5.0,49,0.00,CLR,,0.00,WeatherDisplay:10.37,2013-02-05 18:00:00,
2013-02-05 11:30:00,34.9,17.7,30.33,NNE,26,1.0,4.0,49,0.00,CLR,,0.00,WeatherDisplay:10.37,2013-02-05 18:30:00,
2013-02-05 12:00:00,38.2,18.7,30.31,West,266,3.0,6.0,45,0.00,CLR,,0.00,WeatherDisplay:10.37,2013-02-05 19:00:00,
2013-02-05 12:30:00,37.1,18.2,30.28,SW,222,2.0,5.0,46,0.00,CLR,,0.00,WeatherDisplay:10.37,2013-02-05 19:30:00,
2013-02-05 13:00:00,38.7,18.6,30.26,SE,124,2.0,5.0,44,0.00,CLR,,0.00,WeatherDisplay:10.37,2013-02-05 20:00:00,
2013-02-05 13:30:00,39.5,19.9,30.24,ESE,113,0.0,4.0,45,0.00,CLR,,0.00,WeatherDisplay:10.37,2013-02-05 20:30:00,
2013-02-05 14:00:00,41.9,18.7,30.22,ESE,113,0.0,3.0,39,0.00,CLR,,0.00,WeatherDisplay:10.37,2013-02-05 21:00:00,
2013-02-05 14:30:00,44.8,21.3,30.20,South,178,1.0,4.0,39,0.00,CLR,,0.00,WeatherDisplay:10.37,2013-02-05 21:30:00,
2013-02-05 15:00:00,43.2,21.6,30.18,ESE,113,1.0,4.0,42,0.00,CLR,,0.00,WeatherDisplay:10.37,2013-02-05 22:00:00,
2013-02-05 15:30:00,47.2,22.2,30.18,SW,214,0.0,4.0,37,0.00,CLR,,0.00,WeatherDisplay:10.37,2013-02-05 22:30:00,
2013-02-05 16:00:00,46.5,21.6,30.17,SW,232,0.0,4.0,37,0.00,CLR,,0.00,WeatherDisplay:10.37,2013-02-05 23:00:00,
2013-02-05 16:30:00,45.3,21.2,30.16,SW,232,2.0,3.0,38,0.00,CLR,,0.00,WeatherDisplay:10.37,2013-02-05 23:30:00,
2013-02-05 17:00:00,44.4,22.2,30.15,SW,232,0.0,3.0,41,0.00,CLR,,0.00,WeatherDisplay:10.37,2013-02-06 00:00:00,
2013-02-05 17:30:00,37.5,20.5,30.16,SE,132,3.0,5.0,50,0.00,CLR,,0.00,WeatherDisplay:10.37,2013-02-06 00:30:00,
2013-02-05 18:00:00,33.5,19.5,30.17,SE,138,2.0,7.0,56,0.00,CLR,,0.00,WeatherDisplay:10.37,2013-02-06 01:00:00,
2013-02-05 18:30:00,32.0,18.5,30.17,SE,134,2.0,5.0,57,0.00,CLR,,0.00,WeatherDisplay:10.37,2013-02-06 01:30:00,
2013-02-05 19:00:00,29.6,18.9,30.17,ESE,109,3.0,5.0,64,0.00,CLR,,0.00,WeatherDisplay:10.37,2013-02-06 02:00:00,
2013-02-05 19:30:00,29.0,18.7,30.17,SE,141,0.0,5.0,65,0.00,CLR,,0.00,WeatherDisplay:10.37,2013-02-06 02:30:00,
2013-02-05 20:00:00,28.3,18.4,30.18,SE,135,3.0,6.0,66,0.00,CLR,,0.00,WeatherDisplay:10.37,2013-02-06 03:00:00,